[[{"header":{"parameterUnit":"m.s-1","parameterCategory":1,"la1":30.2991,"la2":30.254,"lo1":-89.0895,"lo2":-89.0444,"dy":0.0017,"dx":0.0017,"nx":28,"ny":28,"refTime":"2026-02-09T03:00:00:Z","depth":0,"parameterNumber":2,"parameterNumberName":"U-component_of_WINDS"},"data":[0,0,0,0,0,0,0,0,0,0,0,0,0,0,0,0,0,0,0,0,0,0,0,0,0,0,0,0,0,0,0,0,0,0,0,0,0,0,0,0,0,0,0,0,0,0,0,0,0,0,0,0,0,0,0,0,0,0,2.0092,2.0092,0,2.0067,2.0067,2.0066,2.0,1.9998,1.9997,1.9996,1.9972,1.9973,1.9973,0,0,0,0,0,0,0,0,0,0,0,0,0,2.0084,2.0085,2.0092,2.0092,2.0091,2.0067,2.0067,2.0066,2.0,1.9998,1.9997,1.9995,1.9972,1.9973,1.9973,0,0,0,0,0,0,0,0,0,0,0,0,0,2.0076,2.0085,2.0092,2.0055,2.0052,2.0067,2.0067,2.0066,2.0,1.9998,1.9996,1.9994,1.9971,1.9972,1.9974,2.0023,0,0,1.9977,1.9977,0,0,0,0,0,0,0,0,2.0077,2.0077,2.0061,2.0058,2.0054,2.0034,2.0055,2.0052,2.0001,2.002,1.9996,1.9993,1.9995,1.9994,1.9994,2.0022,2.0021,1.9977,1.9978,1.9978,1.9978,0,0,0,0,0,0,0,2.0077,2.0077,2.0082,2.0061,2.0057,2.0041,2.0037,2.0054,2.002,2.0018,2.0013,2.0011,1.9992,1.9993,1.9993,2.0021,1.9977,1.9978,1.9978,1.9979,2.0089,2.0091,0,0,0,0,0,0,2.0083,2.0078,2.0083,2.0081,2.006,2.0043,2.0039,2.0043,2.0019,2.0014,2.0013,2.0008,1.9992,1.9992,1.9992,2.0048,1.9978,1.9979,1.998,2.0086,2.0089,2.0092,0,0,0,0,0,0,2.0083,2.0084,2.0084,2.0078,2.0077,2.0045,2.005,2.0043,2.0044,2.0015,2.0009,2.002,1.999,1.999,2.0016,2.0046,1.9979,1.998,2.0084,2.0087,2.009,2.0161,0,0,0,0,0,0,2.0083,2.0084,2.0102,2.0079,2.0078,2.0108,2.0052,2.0045,2.0046,2.0039,2.002,2.0015,1.9989,2.0014,2.0017,2.0046,1.9981,2.0081,2.0085,2.0089,2.0156,2.0167,2.0176,0,0,0,0,0,2.0083,2.0124,2.0104,2.0105,2.0099,2.011,2.0109,2.0077,2.0048,2.0067,2.0048,2.0016,2.0043,2.0018,2.002,2.005,2.0079,2.0084,2.0089,2.0152,2.0165,2.0175,0,0,0,0,0,0,2.0152,2.012,2.0097,2.0132,2.0124,2.0099,2.012,2.0092,2.0093,2.0087,2.0048,2.0044,2.0076,2.0065,2.0038,2.0097,2.0055,2.0061,2.0102,2.0114,2.0124,2.0126,1.9982,0,0,0,0,0,2.0171,2.0181,2.0153,2.0186,2.0184,2.0153,2.0156,2.0133,2.0123,2.012,2.0103,2.0096,2.0103,2.0108,2.0113,2.0154,2.0149,2.0176,2.0186,2.0195,2.02,2.0221,2.0233,2.0108,2.0108,2.0108,0,0,2.021,2.0194,2.0203,2.02,2.0191,2.0203,2.0151,2.0166,2.0175,2.0122,2.0145,2.0133,2.0122,2.0156,2.017,2.0149,2.0233,2.0201,2.0208,2.0209,2.0228,2.024,2.025,2.0112,2.0111,2.0111,0,0,2.0289,2.0278,2.0304,2.0296,2.0283,2.0263,2.0269,2.0248,2.0238,2.026,2.0221,2.0232,2.0244,2.0238,2.0237,2.0314,2.0284,2.0317,2.0368,2.0389,2.0399,2.0408,2.0435,2.0445,2.0322,2.0322,2.0322,0,2.0339,2.0356,2.0321,2.0338,2.0338,2.0291,2.0318,2.0312,2.0302,2.0303,2.0279,2.0294,2.0284,2.0315,2.0334,2.0335,2.0341,2.0318,2.04,2.0409,2.0416,2.0442,2.0452,2.0326,2.0326,2.0325,2.0325,0,2.0419,2.0431,2.0454,2.0444,2.0447,2.0469,2.0438,2.0445,2.0422,2.0404,2.0428,2.0414,2.0415,2.0421,2.0398,2.0449,2.0436,2.0407,2.0364,2.0433,2.0456,2.0465,2.0332,2.0331,2.0329,2.0328,0,0,2.0539,2.051,2.0519,2.0514,2.0497,2.0506,2.0527,2.0527,2.0534,2.0529,2.0545,2.0557,2.053,2.0528,2.0505,2.0524,2.0586,2.0492,2.0491,2.051,2.0641,2.0663,2.0675,2.0566,2.0568,2.0569,2.0642,0,2.0612,2.0644,2.0614,2.0652,2.0663,2.0619,2.0637,2.0629,2.0613,2.0621,2.0604,2.0613,2.0576,2.0575,2.0592,2.0575,2.0611,2.0569,2.0581,2.0582,2.0584,2.0687,2.071,2.078,2.0651,2.0653,2.0654,0,2.0701,2.07,2.0739,2.072,2.0723,2.074,2.0738,2.0746,2.0736,2.0723,2.0722,2.0694,2.0713,2.0672,2.0698,2.067,2.0673,2.0666,2.0668,2.0667,2.0621,2.0689,2.0801,2.0812,2.0668,2.0667,2.0666,0,2.0784,2.0792,2.0817,2.0814,2.0792,2.0805,2.0797,2.0785,2.0787,2.0786,2.0787,2.0789,2.079,2.0792,2.0765,2.0737,2.0795,2.0751,2.0785,2.0786,2.0798,2.0798,2.0912,2.0802,2.0802,2.0802,2.0801,0,2.0869,2.0895,2.0854,2.0869,2.0897,2.0862,2.0891,2.0878,2.0868,2.0881,2.0843,2.0856,2.082,2.0829,2.0808,2.0833,2.0834,2.0824,2.0818,2.0827,2.0828,2.0828,2.0822,2.0804,2.0804,2.0803,2.0803,0,2.0966,2.0939,2.0963,2.0941,2.0936,2.0957,2.0938,2.0951,2.0934,2.095,2.0952,2.0924,2.0933,2.0906,2.0911,2.0897,2.0933,2.092,2.0936,2.0932,2.0967,2.0964,2.1085,2.1099,2.098,2.0981,2.0982,0,2.1021,2.1039,2.1019,2.1024,2.1018,2.1027,2.1029,2.0997,2.1001,2.0991,2.1006,2.1012,2.1014,2.103,2.1011,2.1015,2.1,2.1043,2.1001,2.1009,2.1,2.0999,2.1001,2.1051,2.1053,2.1054,2.1055,0,2.1122,2.1108,2.1112,2.1112,2.1116,2.1114,2.111,2.1117,2.1082,2.1089,2.1097,2.1099,2.1104,2.111,2.1109,2.1101,2.1073,2.1068,2.1076,2.1085,2.1094,2.1089,2.0959,2.1065,2.1064,2.1064,2.1063,2.1063,2.1199,2.1213,2.1201,2.1207,2.1201,2.1198,2.121,2.1194,2.12,2.12,2.1181,2.1194,2.1184,2.118,2.1175,2.1185,2.1165,2.1177,2.118,2.1183,2.1189,2.1093,2.1185,2.1185,2.1184,2.1184,2.1184,0,2.1297,2.1287,2.1293,2.1289,2.1294,2.1266,2.1261,2.1267,2.1278,2.1271,2.1275,2.1285,2.129,2.1272,2.1275,2.1287,2.1274,2.1289,2.1287,2.1286,2.1206,2.1199,2.1299,2.1299,2.1299,2.1299,2.1299,2.1299,2.1348,2.1372,2.1357,2.1377,2.1367,2.1378,2.1377,2.1375,2.1369,2.1382,2.1386,2.1374,2.1363,2.1366,2.137,2.1365,2.1367,2.1387,2.1377,2.1303,2.1291,2.1281,2.1273,2.1388,2.1388,2.1456,2.1456,2.1457]},{"header":{"parameterUnit":"m.s-1","parameterCategory":1,"la1":30.2991,"la2":30.254,"lo1":-89.0895,"lo2":-89.0444,"dy":0.0017,"dx":0.0017,"nx":28,"ny":28,"refTime":"2026-02-09T03:00:00:Z","depth":0,"parameterNumber":3,"parameterNumberName":"V-component_of_WINDS"},"data":[0,0,0,0,0,0,0,0,0,0,0,0,0,0,0,0,0,0,0,0,0,0,0,0,0,0,0,0,0,0,0,0,0,0,0,0,0,0,0,0,0,0,0,0,0,0,0,0,0,0,0,0,0,0,0,0,0,0,0.36,0.3599,0,0.349,0.3489,0.3487,0.3432,0.3432,0.3432,0.3432,0.3313,0.331,0.3307,0,0,0,0,0,0,0,0,0,0,0,0,0,0.3756,0.3753,0.3601,0.3599,0.3598,0.349,0.3489,0.3487,0.3432,0.3432,0.3432,0.3432,0.3314,0.331,0.3306,0,0,0,0,0,0,0,0,0,0,0,0,0,0.3671,0.3752,0.3601,0.3557,0.3552,0.3491,0.3489,0.3487,0.3432,0.3432,0.3432,0.3432,0.3315,0.3311,0.3306,0.3277,0,0,0.3291,0.3289,0,0,0,0,0,0,0,0,0.3676,0.3665,0.3565,0.356,0.3555,0.3475,0.35,0.3416,0.3432,0.3477,0.3432,0.3432,0.3366,0.3357,0.3337,0.3272,0.3266,0.3291,0.3288,0.3286,0.3285,0,0,0,0,0,0,0,0.3682,0.367,0.3557,0.3564,0.3557,0.3541,0.3529,0.3484,0.3423,0.3473,0.3469,0.3457,0.3363,0.3341,0.3333,0.3265,0.3291,0.3287,0.3284,0.3282,0.3167,0.3167,0,0,0,0,0,0,0.3696,0.3675,0.356,0.3553,0.3617,0.3538,0.3525,0.35,0.3424,0.3412,0.3457,0.3455,0.3349,0.3339,0.3329,0.3289,0.3286,0.3282,0.3279,0.3167,0.3167,0.3167,0,0,0,0,0,0,0.3699,0.3686,0.3565,0.3613,0.3596,0.3535,0.3509,0.3498,0.3476,0.3411,0.34,0.3446,0.3349,0.3336,0.329,0.3284,0.328,0.3275,0.3167,0.3167,0.3167,0.3209,0,0,0,0,0,0,0.3704,0.3688,0.3678,0.3613,0.3594,0.353,0.3508,0.3496,0.3469,0.3465,0.3398,0.3387,0.3348,0.3297,0.3285,0.3277,0.3272,0.3168,0.3167,0.3167,0.3208,0.321,0.3212,0,0,0,0,0,0.371,0.3694,0.3678,0.3665,0.3581,0.353,0.3519,0.3476,0.3469,0.3457,0.3415,0.3389,0.3286,0.3293,0.3279,0.327,0.3168,0.3167,0.3167,0.3207,0.321,0.3212,0,0,0,0,0,0,0.3758,0.3685,0.3666,0.363,0.3587,0.3521,0.3505,0.348,0.3437,0.3435,0.3382,0.3367,0.3326,0.3293,0.3302,0.3236,0.3224,0.3221,0.3259,0.3261,0.3264,0.3272,0.3268,0,0,0,0,0,0.3765,0.3732,0.3668,0.3642,0.3621,0.3567,0.3543,0.3514,0.3466,0.3447,0.3402,0.3355,0.3312,0.3285,0.3242,0.3202,0.3185,0.3188,0.319,0.3192,0.319,0.3164,0.3164,0.3165,0.3165,0.3165,0,0,0.3778,0.3733,0.3716,0.365,0.3614,0.3578,0.3552,0.3516,0.3488,0.3441,0.3396,0.336,0.3304,0.3261,0.324,0.3232,0.3186,0.3192,0.3194,0.319,0.3164,0.3164,0.3164,0.3165,0.3165,0.3165,0,0,0.3783,0.3747,0.3721,0.3684,0.3629,0.3593,0.3586,0.3523,0.3499,0.3453,0.3416,0.338,0.3308,0.3269,0.324,0.3227,0.3201,0.3214,0.3225,0.32,0.32,0.32,0.3194,0.3193,0.3212,0.3212,0.3212,0,0.3806,0.3753,0.3709,0.3675,0.3646,0.3603,0.3573,0.3539,0.3472,0.3452,0.3445,0.3351,0.331,0.3257,0.3253,0.3231,0.322,0.3222,0.3204,0.3203,0.3202,0.3196,0.3194,0.3214,0.3214,0.3214,0.3213,0,0.3783,0.3746,0.3731,0.3669,0.3638,0.3606,0.3554,0.3528,0.35,0.3463,0.3415,0.3364,0.3309,0.3294,0.3266,0.3235,0.3232,0.3215,0.3202,0.3205,0.3198,0.3195,0.3217,0.3216,0.3216,0.3215,0,0,0.3818,0.3731,0.3726,0.3696,0.3631,0.36,0.3565,0.3512,0.349,0.3444,0.3411,0.3349,0.3333,0.3299,0.3266,0.3245,0.3236,0.323,0.3228,0.3232,0.3196,0.3209,0.3207,0.3218,0.3217,0.3217,0.32,0,0.3814,0.3752,0.3709,0.3662,0.3626,0.3583,0.3551,0.3506,0.3471,0.3433,0.3391,0.3348,0.3331,0.331,0.3287,0.3242,0.3228,0.3243,0.3184,0.3183,0.32,0.3203,0.3217,0.3204,0.3197,0.3197,0.3196,0,0.3802,0.3758,0.3708,0.3645,0.3628,0.3601,0.3548,0.3513,0.346,0.3435,0.3397,0.3363,0.332,0.331,0.325,0.3261,0.3234,0.3208,0.3206,0.3199,0.319,0.3195,0.3199,0.3197,0.3192,0.3192,0.3192,0,0.3831,0.376,0.372,0.3696,0.3622,0.3603,0.3571,0.3517,0.3487,0.344,0.3419,0.3367,0.3338,0.3297,0.3248,0.3246,0.3192,0.3179,0.3168,0.3169,0.3159,0.316,0.3158,0.3142,0.3142,0.3142,0.3142,0,0.3831,0.3802,0.3732,0.3708,0.3672,0.3622,0.3588,0.3551,0.3503,0.3469,0.3427,0.3395,0.3333,0.3292,0.3254,0.3208,0.3195,0.3172,0.3162,0.3175,0.3178,0.3157,0.3157,0.3142,0.3142,0.3142,0.3142,0,0.3859,0.3811,0.3765,0.3698,0.368,0.3657,0.3597,0.357,0.3531,0.3488,0.3474,0.3412,0.3362,0.3309,0.3241,0.3214,0.3169,0.3156,0.3188,0.3183,0.3174,0.3175,0.3158,0.3152,0.3142,0.3142,0.3142,0,0.3862,0.3839,0.3769,0.3743,0.3712,0.3672,0.3641,0.359,0.3559,0.3495,0.3474,0.3421,0.3376,0.3297,0.3244,0.319,0.3174,0.3172,0.3166,0.318,0.3173,0.3175,0.3171,0.3174,0.3175,0.3175,0.3175,0,0.3872,0.385,0.3809,0.3758,0.3723,0.368,0.3636,0.3617,0.3555,0.3522,0.3471,0.3436,0.3366,0.3312,0.3252,0.3215,0.3184,0.3177,0.3172,0.3185,0.3205,0.3193,0.3193,0.3178,0.3178,0.3178,0.3177,0.3177,0.3887,0.3864,0.381,0.3765,0.3726,0.3685,0.3656,0.3613,0.357,0.351,0.3481,0.3429,0.3372,0.3288,0.3251,0.3208,0.3199,0.3191,0.3189,0.3188,0.3191,0.3212,0.3196,0.3196,0.3196,0.3196,0.3196,0,0.3895,0.3858,0.3817,0.3756,0.3719,0.3695,0.3643,0.3613,0.3569,0.352,0.3476,0.3415,0.3362,0.3304,0.3247,0.3223,0.3207,0.321,0.3211,0.3202,0.3202,0.3213,0.3224,0.3224,0.3224,0.3224,0.3224,0.3224,0.3895,0.3853,0.3823,0.376,0.3722,0.3673,0.3645,0.3605,0.3565,0.35,0.3457,0.342,0.3366,0.3304,0.3253,0.3237,0.3218,0.3224,0.3204,0.3205,0.3203,0.3201,0.321,0.3221,0.3221,0.3207,0.3207,0.3207]}]]